Preview of NWS' New Version of Forecast
This preview is not operational and should not be used for support decisions.

Regional Weather Roundup (RWR)

Issued by National Weather Service (NWS)

                            
000
ASUS43 KDTX 180110
RWRMI 
MICHIGAN HOURLY REGIONAL WEATHER ROUNDUP
NATIONAL WEATHER SERVICE DETROIT/PONTIAC MI
900 PM EDT MON JUN 17 2019

NOTE: "FAIR" INDICATES FEW OR NO CLOUDS BELOW 12,000 FEET WITH NO
SIGNIFICANT WEATHER AND/OR OBSTRUCTION TO VISIBILITY.

MIZ047>049-052>055-059>063-066>070-074>076-081>083-180200-
SOUTHEAST LOWER MICHIGAN
  
CITY           SKY/WX    TMP DP  RH WIND       PRES   REMARKS
ADRIAN         CLOUDY    66  57  72 SE5       29.99S                  
ALMA           FAIR      67  59  75 CALM      29.99S                  
ANN ARBOR      CLOUDY    67  60  78 CALM      29.98S                  
BAD AXE        FAIR      62  54  75 E3        29.99S                  
CARO           CLOUDY    64  58  81 CALM      29.99R                  
DETROIT CITY   FAIR      67  56  67 E6        29.98S                  
DETROIT        CLOUDY    67  56  67 SE5       29.98S                  
FLINT          CLOUDY    68  57  68 NE5       29.99R                  
GROSSE ILE     CLOUDY    63  60  92 CALM      29.98S                  
HILLSDALE      CLOUDY    65  61  86 NE5       29.99R                  
HOWELL         CLOUDY    66  58  73 CALM      29.99S                  

CITY           SKY/WX    TMP DP  RH WIND       PRES   REMARKS
JACKSON        CLOUDY    67  63  87 CALM      29.99R                  
LAMBERTVILLE   CLOUDY    66  59  79 CALM      29.98S                  
LANSING        CLOUDY    66  60  81 NE3       30.00R                  
LAPEER         CLOUDY    66  58  74 CALM      30.00R                  
MASON          CLOUDY    67  62  84 CALM      30.00R                  
MONROE         CLOUDY    65  65  97 CALM      29.98S                  
MT. CLEMENS    CLOUDY    64  58  83 E8        29.98S                  
PONTIAC        CLOUDY    68  59  73 E6        29.97S                  
PORT HOPE        N/A     53  48  83 E5        30.00S                  
PORT HURON     CLOUDY    61  46  59 NE3       30.00S                  
TRI CITIES     FAIR      67  58  72 S3        30.00R                  
MIDLAND        FAIR      64  57  77 E3        29.99R                  
TROY           FAIR      69  54  57 E5        30.00F                  
SAGINAW HB     FAIR      68  55  64 CALM      29.99S                  
$$
MIZ043>046-050>051-056>058-064>065-071>073-077>080-180200-
SOUTHWEST LOWER MICHIGAN
  
CITY           SKY/WX    TMP DP  RH WIND       PRES   REMARKS
BATTLE CREEK   CLOUDY    67  62  84 VRB5      29.99S                  
BENTON HARBOR  CLOUDY    60  56  86 VRB3      29.98S                  
BIG RAPIDS     FAIR      68  58  69 SW3       29.98R                  
COLDWATER      CLOUDY    66  66 100 NE3       29.99R                  
FREMONT        FAIR      67  57  71 W3        29.98R                  
HOLLAND        CLOUDY    66  59  78 NW3       29.99R                  
GRAND RAPIDS   CLOUDY    68  60  75 E3        29.99R                  
IONIA          CLOUDY    66  58  76 CALM      29.99S                  
KALAMAZOO      CLOUDY    68  61  78 NE3       29.99R                  
LUDINGTON      FAIR      62  51  66 CALM      29.99R                  
MARSHALL       CLOUDY    68  68 100 CALM      29.99R                  
MOUNT PLEASANT FAIR      67  58  72 SE5       29.98S                  
MUSKEGON       CLOUDY    65  54  67 W3        29.99R                  
SOUTH HAVEN    CLOUDY    61  57  85 CALM      29.99S                  
$$
MIZ016>042-180200-
NORTHERN LOWER MICHIGAN
  
CITY           SKY/WX    TMP DP  RH WIND       PRES   REMARKS
ALPENA         FAIR      58  47  66 SE5       30.00S                  
BEAVER ISLAND  FAIR      58  46  62 CALM      29.99S                  
BELLAIRE       FAIR      67  49  51 N3        29.98R                  
CADILLAC       FAIR      68  54  60 CALM      29.97R                  
CHARLEVOIX     FAIR      64  49  58 W3        30.02R                  
FRANKFORT      FAIR      67  47  48 CALM      29.99R                  
GAYLORD        FAIR      68  50  52 NE8       29.99R                  
GRAYLING       FAIR      68  53  59 NW3       29.96R                  
HARBOR SPRINGS FAIR      59  50  72 CALM      29.98S                  
HOUGHTON LAKE  FAIR      67  53  61 S8        29.98R                  
MANISTEE       FAIR      60  50  69 W7        29.98R                  
OSCODA         FAIR      55  47  72 NE3       30.00S                  
PELLSTON       FAIR      68  47  46 E7        29.99S                  
ROGERS CITY    FAIR      65  49  56 SE5       30.00S                  
TRAVERSE CITY  MOCLDY    64  51  62 NW3       29.97S                  
$$
MIZ007>008-015-180200-
EASTERN UPPER MICHIGAN
  
CITY           SKY/WX    TMP DP  RH WIND       PRES   REMARKS
KINROSS        FAIR      65  49  56 N5        29.99S                  
MACKINAC ISLAN FAIR      61  47  61 E6        29.99F                  
NEWBERRY       FAIR      66  46  47 NE6       29.99R                  
S. S. MARIE    FAIR      60  48  64 W5        29.98R                  
MUNISING         N/A     60  49  66 CALM      29.97S                  
$$
MIZ004>006-011>014-085-180200-
CENTRAL UPPER MICHIGAN
  
CITY           SKY/WX    TMP DP  RH WIND       PRES   REMARKS
MANISTIQUE     FAIR      63  52  67 CALM      29.98S                  
ESCANABA       FAIR      62  50  64 CALM      29.99S                  
MENOMINEE      FAIR      64  52  64 SE5       30.00S                  
SAWYER-GWINN   CLEAR     70  50  49 S8        29.97S                  
$$
MIZ001>003-009>011-084-180200-
WESTERN UPPER MICHIGAN
  
CITY           SKY/WX    TMP DP  RH WIND       PRES   REMARKS
IRON MOUNTAIN  FAIR      69  51  52 S7        29.96S                  
HOUGHTON       CLOUDY    56  40  55 E7        29.96S                  
COPPER HARBOR    N/A     55  42  61 SE5       29.96F                  
IRONWOOD       FAIR      63  51  65 E3        29.96F                  
$$

ABBREVIATIONS USED IN REMARKS
   TC - TEMPERATURE IN CELSIUS
  WCI - WIND CHILL INDEX
   HX - HEAT INDEX
  VSB - VISIBILITY